• In Hungary
  • List of Countries
  • For 7 days
  • Water Temperature
  • Satellite Maps
  • Weather Map
  • News
  • Weather Widgets
  • user-avatar
    Login

    Hourly Weather Korshevo

    Today, 21 October, Sunday

    Time Temperature Precipitation Wind Pressure Humidity
    00:00 +12°C° 0 mm 3 mps 752 mmHg 79%
    01:00 +12°C° 0 mm 3 mps 752 mmHg 78%
    02:00 +12°C° 0 mm 3 mps 752 mmHg 78%
    03:00 +11°C° 0 mm 4 mps 752 mmHg 77%
    04:00 +11°C° 0 mm 4 mps 752 mmHg 77%
    05:00 +11°C° 0 mm 4 mps 752 mmHg 76%
    06:00 +11°C° 0 mm 4 mps 752 mmHg 76%
    07:00 +11°C° 0 mm 4 mps 752 mmHg 75%
    08:00 +11°C° 0 mm 4 mps 753 mmHg 75%
    09:00 +11°C° 0 mm 4 mps 753 mmHg 71%
    10:00 +11°C° 0 mm 4 mps 753 mmHg 70%
    11:00 +12°C° 0 mm 4 mps 753 mmHg 69%
    12:00 +12°C° 0 mm 4 mps 754 mmHg 68%
    13:00 +12°C° 0 mm 4 mps 754 mmHg 68%
    14:00 +13°C° 0 mm 4 mps 754 mmHg 67%
    15:00 +13°C° 0 mm 4 mps 753 mmHg 67%
    16:00 +13°C° 0 mm 4 mps 754 mmHg 68%
    17:00 +12°C° 0 mm 4 mps 754 mmHg 69%
    18:00 +12°C° 0 mm 4 mps 754 mmHg 71%
    19:00 +12°C° 0 mm 4 mps 754 mmHg 70%
    20:00 +11°C° 0 mm 4 mps 754 mmHg 70%
    21:00 +11°C° 0 mm 4 mps 754 mmHg 70%
    22:00 +11°C° 0.1 mm 4 mps 754 mmHg 71%
    23:00 +11°C° 0.1 mm 4 mps 754 mmHg 71%

    Tomorrow, 22 October, Monday

    Time Temperature Precipitation Wind Pressure Humidity
    00:00 +11°C° 0.1 mm 4 mps 754 mmHg 72%
    01:00 +10°C° 0 mm 4 mps 754 mmHg 73%
    02:00 +10°C° 0 mm 4 mps 754 mmHg 74%
    03:00 +10°C° 0 mm 4 mps 755 mmHg 75%
    04:00 +10°C° 0 mm 4 mps 754 mmHg 76%
    05:00 +10°C° 0 mm 4 mps 754 mmHg 76%
    06:00 +10°C° 0 mm 4 mps 754 mmHg 77%
    07:00 +10°C° 0 mm 4 mps 754 mmHg 78%
    08:00 +10°C° 0 mm 4 mps 755 mmHg 78%
    09:00 +10°C° 0 mm 4 mps 755 mmHg 78%
    10:00 +11°C° 0.1 mm 4 mps 754 mmHg 79%
    11:00 +11°C° 0.1 mm 3 mps 754 mmHg 80%
    12:00 +12°C° 0.1 mm 3 mps 754 mmHg 80%
    13:00 +12°C° 0.2 mm 3 mps 754 mmHg 82%
    14:00 +12°C° 0.2 mm 3 mps 754 mmHg 83%
    15:00 +12°C° 0.2 mm 3 mps 753 mmHg 84%
    16:00 +12°C° 0.2 mm 3 mps 753 mmHg 85%
    17:00 +12°C° 0.2 mm 3 mps 753 mmHg 86%
    18:00 +12°C° 0.2 mm 3 mps 752 mmHg 87%
    19:00 +12°C° 0.1 mm 3 mps 752 mmHg 87%
    20:00 +12°C° 0.1 mm 3 mps 752 mmHg 86%
    21:00 +12°C° 0.1 mm 3 mps 751 mmHg 85%
    22:00 +12°C° 0.7 mm 3 mps 751 mmHg 86%
    23:00 +12°C° 0.7 mm 3 mps 750 mmHg 86%

    Day after tomorrow, 23 October, Tuesday

    Time Temperature Precipitation Wind Pressure Humidity
    00:00 +12°C° 0.7 mm 3 mps 750 mmHg 86%
    01:00 +11°C° 1.8 mm 3 mps 749 mmHg 88%
    02:00 +12°C° 1.8 mm 2 mps 748 mmHg 90%
    03:00 +12°C° 1.8 mm 2 mps 748 mmHg 92%
    04:00 +12°C° 0.3 mm 2 mps 747 mmHg 92%
    05:00 +12°C° 0.3 mm 2 mps 747 mmHg 92%
    06:00 +12°C° 0.3 mm 2 mps 746 mmHg 92%
    07:00 +10°C° 0.1 mm 3 mps 746 mmHg 89%
    08:00 +10°C° 0.1 mm 4 mps 746 mmHg 86%
    09:00 +9°C° 0.1 mm 5 mps 746 mmHg 82%
    10:00 +9°C° 0 mm 5 mps 746 mmHg 74%
    11:00 +10°C° 0 mm 5 mps 746 mmHg 65%
    12:00 +10°C° 0 mm 5 mps 746 mmHg 56%
    13:00 +10°C° 0 mm 5 mps 746 mmHg 53%
    14:00 +12°C° 0 mm 5 mps 746 mmHg 50%
    15:00 +12°C° 0 mm 5 mps 746 mmHg 46%
    16:00 +11°C° 0 mm 4 mps 745 mmHg 51%
    17:00 +10°C° 0 mm 3 mps 745 mmHg 55%
    18:00 +9°C° 0 mm 3 mps 745 mmHg 60%
    19:00 +8°C° 0 mm 3 mps 745 mmHg 62%
    20:00 +8°C° 0 mm 3 mps 744 mmHg 63%
    21:00 +8°C° 0 mm 3 mps 744 mmHg 65%
    22:00 +7°C° 0 mm 3 mps 744 mmHg 66%
    23:00 +6°C° 0 mm 4 mps 743 mmHg 67%

    24 October, Wednesday

    Time Temperature Precipitation Wind Pressure Humidity
    00:00 +6°C° 0 mm 4 mps 743 mmHg 68%
    01:00 +6°C° 0 mm 4 mps 742 mmHg 69%
    02:00 +5°C° 0 mm 4 mps 742 mmHg 70%
    03:00 +5°C° 0 mm 5 mps 741 mmHg 71%
    04:00 +5°C° 0 mm 5 mps 740 mmHg 71%
    05:00 +5°C° 0 mm 5 mps 740 mmHg 71%
    06:00 +5°C° 0 mm 5 mps 739 mmHg 71%
    07:00 +5°C° 0.1 mm 6 mps 739 mmHg 70%
    08:00 +5°C° 0.1 mm 6 mps 738 mmHg 69%
    09:00 +6°C° 0.1 mm 7 mps 738 mmHg 67%
    10:00 +6°C° 0.6 mm 7 mps 737 mmHg 68%
    11:00 +7°C° 0.6 mm 8 mps 736 mmHg 69%
    12:00 +9°C° 0.6 mm 8 mps 735 mmHg 69%
    13:00 +9°C° 1.2 mm 8 mps 735 mmHg 73%
    14:00 +9°C° 1.2 mm 7 mps 734 mmHg 77%
    15:00 +9°C° 1.2 mm 7 mps 733 mmHg 82%
    16:00 +9°C° 0.9 mm 6 mps 733 mmHg 84%
    17:00 +9°C° 0.9 mm 5 mps 732 mmHg 86%
    18:00 +8°C° 0.9 mm 5 mps 732 mmHg 88%
    19:00 +8°C° 0.1 mm 4 mps 732 mmHg 89%
    20:00 +8°C° 0.1 mm 4 mps 732 mmHg 90%
    21:00 +8°C° 0.1 mm 4 mps 732 mmHg 90%
    22:00 +8°C° 0.1 mm 4 mps 731 mmHg 91%
    23:00 +7°C° 0.1 mm 4 mps 731 mmHg 92%

    25 October, Thursday

    Time Temperature Precipitation Wind Pressure Humidity
    00:00 +7°C° 0.1 mm 4 mps 731 mmHg 93%
    01:00 +8°C° 0.1 mm 4 mps 730 mmHg 93%
    02:00 +8°C° 0.1 mm 5 mps 730 mmHg 93%
    03:00 +8°C° 0.1 mm 5 mps 730 mmHg 93%
    04:00 +8°C° 0.1 mm 5 mps 729 mmHg 92%
    05:00 +8°C° 0.1 mm 5 mps 729 mmHg 92%
    06:00 +8°C° 0.1 mm 5 mps 729 mmHg 91%
    07:00 +7°C° 1.3 mm 5 mps 728 mmHg 88%
    08:00 +7°C° 1.3 mm 6 mps 728 mmHg 85%
    09:00 +7°C° 1.3 mm 6 mps 728 mmHg 82%
    10:00 +6°C° 0.1 mm 7 mps 729 mmHg 75%
    11:00 +6°C° 0.1 mm 8 mps 729 mmHg 69%
    12:00 +7°C° 0.1 mm 9 mps 730 mmHg 62%
    13:00 +6°C° 0.1 mm 9 mps 730 mmHg 63%
    14:00 +6°C° 0.1 mm 9 mps 731 mmHg 65%
    15:00 +6°C° 0.1 mm 9 mps 731 mmHg 66%
    16:00 +6°C° 0 mm 9 mps 731 mmHg 66%
    17:00 +5°C° 0 mm 9 mps 731 mmHg 67%
    18:00 +5°C° 0 mm 8 mps 732 mmHg 67%
    19:00 +5°C° 0.1 mm 8 mps 732 mmHg 69%
    20:00 +5°C° 0.1 mm 8 mps 732 mmHg 70%
    21:00 +5°C° 0.1 mm 8 mps 732 mmHg 72%
    22:00 +3°C° 0 mm 9 mps 732 mmHg 71%
    23:00 +3°C° 0 mm 9 mps 732 mmHg 71%

    26 October, Friday

    Time Temperature Precipitation Wind Pressure Humidity
    00:00 +2°C° 0 mm 9 mps 732 mmHg 70%
    01:00 +2°C° 0.1 mm 9 mps 733 mmHg 71%
    02:00 +2°C° 0.1 mm 9 mps 733 mmHg 72%
    03:00 +2°C° 0.1 mm 10 mps 733 mmHg 73%
    04:00 +2°C° 0.1 mm 9 mps 734 mmHg 73%
    05:00 +2°C° 0.1 mm 8 mps 735 mmHg 73%
    06:00 +1°C° 0.1 mm 8 mps 736 mmHg 73%
    07:00 +1°C° 0 mm 8 mps 737 mmHg 72%
    08:00 +1°C° 0 mm 8 mps 738 mmHg 71%
    09:00 +2°C° 0 mm 7 mps 739 mmHg 70%
    10:00 +3°C° 0 mm 7 mps 740 mmHg 66%
    11:00 +4°C° 0 mm 7 mps 741 mmHg 61%
    12:00 +4°C° 0 mm 7 mps 741 mmHg 57%
    13:00 +5°C° 0 mm 7 mps 742 mmHg 56%
    14:00 +5°C° 0 mm 6 mps 742 mmHg 55%
    15:00 +7°C° 0 mm 6 mps 742 mmHg 54%
    16:00 +6°C° 0 mm 5 mps 743 mmHg 58%
    17:00 +5°C° 0 mm 5 mps 744 mmHg 63%
    18:00 +5°C° 0 mm 4 mps 745 mmHg 67%
    19:00 +4°C° 0 mm 4 mps 745 mmHg 69%
    20:00 +4°C° 0 mm 4 mps 746 mmHg 70%
    21:00 +4°C° 0 mm 3 mps 746 mmHg 71%
    22:00 +4°C° 0 mm 3 mps 746 mmHg 72%
    23:00 +4°C° 0 mm 3 mps 747 mmHg 72%
    Show more